Flag for Italy Weather past 2 weeks in Varese, Italy

Now
62 °F

Cool.


Feels Like: 62 °F
Forecast: 62 / 83 °F
Wind: No wind

Location: Stabio

Current Time: Jun 30, 2015 at 5:43:57 AM

Latest Report: Jun 30, 2015 at 4:00 AM


Visibility: N/A

Pressure: 30.15 "Hg

Humidity: 97%

Dew point: 61 °F

Location of VareseLocation

Historic Weather in Varese — Graph

°F

Varese temperature yesterday

Maximum temperature yesterday: 82 °F (at 4:00 PM)
Minimum temperature yesterday: 61 °F (at 6:00 AM)
Average temperature yesterday: 72 °F

Past Weeks' High & Low Weather Summary

 TemperatureHumidityPressure
High85 °F (Jun 28, 5:00 PM)100% (Jun 15, 4:00 AM)30.24 "Hg (Jun 15, 4:00 AM)
Low53 °F (Jun 25, 6:00 AM)22% (Jun 20, 9:00 PM)29.70 "Hg (Jun 23, 2:00 PM)
Average68 °F70%29.99 "Hg
* Reported Jun 15 4:00 AM — Jun 30 4:00 AM, Varese, Weather by CustomWeather, © 2015

Note: Actual official high and low records may vary slightly from our data, if they occured in-between our weather recording intervals... More about our weather records

Advertising

Varese weather history for previous 24 hours

 ConditionsComfort  
Time TempWeatherWind HumidityBarometerVisibility
4:00 AM
Tue, Jun 30
62 °FCool.No wind97%30.15 "HgN/A
3:00 AM62 °FCool.1 mph92%30.15 "HgN/A
2:00 AM63 °FMild.No wind91%30.16 "HgN/A
1:00 AM65 °FMild.No wind89%30.15 "HgN/A
12:00 AM66 °FMild.No wind89%30.14 "HgN/A
10:00 PM
Mon, Jun 29
69 °FMild.1 mph77%30.11 "HgN/A
9:00 PM72 °FMild.1 mph71%30.09 "HgN/A
8:00 PM77 °FWarm.1 mph61%30.06 "HgN/A
7:00 PM81 °FWarm.2 mph49%30.04 "HgN/A
6:00 PM81 °FWarm.3 mph50%30.05 "HgN/A
5:00 PM82 °FWarm.1 mph45%30.06 "HgN/A
4:00 PM82 °FWarm.3 mph48%30.07 "HgN/A
3:00 PM82 °FWarm.5 mph47%30.08 "HgN/A
2:00 PM79 °FWarm.3 mph49%30.11 "HgN/A
1:00 PM78 °FWarm.3 mph48%30.12 "HgN/A
12:00 PM76 °FMild.2 mph52%30.14 "HgN/A
11:00 AM74 °FMild.1 mph59%30.15 "HgN/A
10:00 AM74 °FMild.1 mph68%30.15 "HgN/A
9:00 AM70 °FMild.1 mph79%30.16 "HgN/A
8:00 AM67 °FMild.No wind87%30.15 "HgN/A
7:00 AM64 °FMild.No wind88%30.14 "HgN/A
6:00 AM61 °FCool.No wind95%30.14 "HgN/A
Weather by CustomWeather, © 2015

See weather overviewHow to use our weather pages